Content
SEND FEEDBACK

Daily
Averages
Monthly
Summary
Turkmenistan

ASHGABAT, TURKMENISTAN


Home > Asia > Turkmenistan
Elevation: 775 feet     Latitude: 37 58N     Longitude: 058 20E

WEATHER
 
SELECT A DAY
Number of Records: 180,407;   Date Range: 3/15/97 - 9/30/14
 
SHARE

PRINT THIS DATA

[ ← Previous Day ]
WEATHER ALMANAC - JUNE 19, 2013
[ Next Day → ]
[ °C ]   °F
Weather ElementAverageHighLow
Temperature84.6 °F100.4 °F (4:00 pm)69 °F (5:00 am)
Dewpoint35.7 °F48 °F (11:00 pm)23 °F (3:00 pm)
Humidity18.2 %35 % (5:00 am)5 % (2:00 pm)
Barometer29.60 in29.65 in (9:00 am)29.56 in (1:00 am)
Wind Speed8.2 mph20.1 mph (11:00 am)
Weather ElementAverage
Visibility6.2 mi
Wind DirectionWSW (244.4 °)

Weather ElementTotal
Precipitation---
Cooling Degree Days19.7 (Base 65)
Growing Degree Days34.7 (Base 50)
Averaged from 35 records on June 19, 2013
WEATHER CONDITIONS BREAKOUT
WIND DIRECTION BREAKOUT
WEATHER BY HOUR - JUNE 19, 2013
[ °C ]   °F
Local TimeTemperatureDewpointHumidityBarometerVisibilityWind DirectionWind SpeedGust SpeedPrecipitationEventsConditions
1:00 AM75.2 °F39.2 °F27 %29.56 in6.2 miEast (90°)4.5 mphClear
1:30 AM75.2 °F39.2 °F27 %29.56 in6.2 miSSE (160°)4.5 mphClear
2:00 AM74.0 °F45.0 °F25 %29.56 in6.0 miSE (130°)4.5 mph
2:00 AM75.2 °F39.2 °F27 %29.56 in6.2 miSE (140°)4.5 mphClear
3:00 AM75.2 °F41.0 °F29 %29.56 in6.2 miWSW (240°)6.7 mphClear
4:00 AM73.4 °F35.6 °F25 %29.56 in6.2 miWNW (300°)6.7 mphClear
4:30 AM71.6 °F41.0 °F33 %29.56 in6.2 miNE (40°)4.5 mphClear
5:00 AM69.0 °F44.0 °F29 %29.57 in6.0 miSouth (190°)6.7 mph
5:00 AM69.8 °F41.0 °F35 %29.56 in6.2 miSouth (190°)6.7 mphClear
5:30 AM71.6 °F39.2 °F31 %29.59 in6.2 miWSW (240°)6.7 mphClear
6:00 AM71.6 °F37.4 °F29 %29.59 in6.2 miWSW (250°)6.7 mphClear
6:30 AM73.4 °F37.4 °F27 %29.59 in6.2 miSW (220°)4.5 mphClear
7:00 AM75.2 °F39.2 °F27 %29.59 in6.2 miWest (260°)2.2 mphPartly Cloudy
8:00 AM79.0 °F41.0 °F16 %29.61 in6.0 miNW (320°)11.2 mphPartly Cloudy
8:00 AM78.8 °F35.6 °F21 %29.62 in6.2 miNW (320°)11.2 mphScattered Clouds
9:00 AM82.4 °F33.8 °F17 %29.65 in6.2 miNW (310°)13.4 mphScattered Clouds
10:00 AM87.8 °F33.8 °F15 %29.65 in5.0 miWNW (300°)15.7 mphScattered Clouds
11:00 AM89.6 °F35.6 °F15 %29.65 in6.2 miNW (310°)17.9 mphScattered Clouds
11:00 AM90.0 °F39.0 °F9 %29.62 in6.0 miNW (310°)20.1 mphPartly Cloudy
12:00 PM93.2 °F33.8 °F12 %29.65 in6.2 miWNW (300°)15.7 mphScattered Clouds
1:00 PM95.0 °F32.0 °F11 %29.65 in6.2 miWNW (300°)13.4 mphMostly Cloudy
2:00 PM96.0 °F33.0 °F5 %29.60 in6.0 miNW (310°)11.2 mphPartly Cloudy
2:00 PM96.8 °F28.4 °F9 %29.62 in6.2 miWNW (300°)15.7 mphMostly Cloudy
3:00 PM98.6 °F23.0 °F7 %29.62 in6.2 miWest (270°)11.2 mphScattered Clouds
4:00 PM100.4 °F23.0 °F6 %29.62 in6.2 miWNW (290°)8.9 mphPartly Cloudy
5:00 PM98.6 °F23.0 °F7 %29.62 in6.2 miNW (310°)6.7 mphMostly Cloudy
5:00 PM100.0 °F41.0 °F7 %29.57 in6.0 miWNW (300°)6.7 mphPartly Cloudy
6:00 PM98.6 °F23.0 °F7 %29.59 in6.2 miWest (260°)6.7 mphMostly Cloudy
7:00 PM98.6 °F26.6 °F8 %29.62 in6.2 miWNW (290°)6.7 mphMostly Cloudy
8:00 PM94.0 °F39.0 °F8 %29.60 in12.0 miWNW (290°)6.7 mphClear
8:00 PM93.2 °F30.2 °F11 %29.62 in6.2 miWNW (290°)6.7 mphScattered Clouds
9:00 PM89.6 °F30.2 °F12 %29.62 in3.7 miWest (260°)6.7 mphMostly Cloudy
10:00 PM86.0 °F35.6 °F17 %29.65 in6.2 miSW (220°)4.5 mphMostly Cloudy
11:00 PM83.0 °F48.0 °F20 %29.64 in6.0 miCalmClear
11:00 PM82.4 °F42.8 °F25 %29.65 in6.2 miVariable2.2 mphMostly Cloudy
Hourly data recorded from UTAA, located miles away from Ashgabat, Turkmenistan







STORIES FROM OUR PARTNERS